Location: Acheville
(50.3840°N, 2.8827°E)
Time: 12:55:00
(UTC+00:00)

Cosmos 1953 Rocket - Pass Details

Date: 24 October 2021
Orbit: 603 x 635 km, 82.5° (Epoch: 05 December)

Event Time Altitude Azimuth Distance (km) Brightness Sun altitude
Rises 18:19:16 0° 356° (N) 2,948 7.1 -16.6°
Reaches altitude 10° 18:21:45 10° 7° (N) 2,033 6.1 -17.0°
Enters shadow 18:25:28 31° 62° (ENE) 1,127 4.4 -17.6°
